Notices

What's New in latest Release from April 7th, 2021:

- Updated Glossary, including Speed of Maximum Gust, and Total Hourly Precipitation

- Updated national and regional climate services offices contacts and prices information

- Addition of station inventory lists for 1981-2010, 1971-2000, and 1961-1990 Normals.

If you haven't already, please take our survey and provide feedback about our website: https://eccc.sondage-survey.ca/f/LanguageSelection.aspx?s=442ca660-fcf1-47c0-95a9-59707d6fd709

Hourly Data Report for April 22, 2016

MIRAMICHI RCS
NEW BRUNSWICK

47°00'34.000" N
65°27'54.000" W
33.00 m
8100989
71744
ACQ

Download Data

Hourly Data (April 2016)
Hourly Data Report for April 22, 2016
TIME
LST
Temp Definition
°C
Dew Point Definition
°C
Rel Hum Definition
%
Precip. Amount Definition
mm

Wind Dir Definition
10's deg

Wind Spd Definition
km/h
Visibility Definition
km
Stn Press Definition
kPa
Hmdx Definition


Wind Chill Definition


Weather Definition


00:00 6.1 -0.7 62 0.0 26 5   100.61     LegendNANA
01:00 4.8 -0.9 66 0.0 35 3   100.67     LegendNANA
02:00 3.2 -0.9 75 0.0 6 3   100.65     LegendNANA
03:00 1.8 -1.6 78 0.0 8 2   100.67     LegendNANA
04:00 1.2 -1.2 84 0.0 27 3   100.74     LegendNANA
05:00 0.1 -2.1 85 0.0 8 5   100.78     LegendNANA
06:00 0.6 -2.0 83 0.0 25 3   100.81     LegendNANA
07:00 5.0 0.8 74 0.0 25 3   100.84     LegendNANA
08:00 10.3 1.9 56 0.0 25 5   100.84     LegendNANA
09:00 14.5 1.6 41 0.0 11 5   100.84     LegendNANA
10:00 17.1 1.2 34 0.0 25 3   100.85     LegendNANA
11:00 19.0 1.1 30 0.0 12 5   100.81     LegendNANA
12:00 20.6 2.2 29 0.0 11 7   100.74     LegendNANA
13:00 21.2 2.8 30 0.0 16 7   100.70     LegendNANA
14:00 21.7 2.7 29 0.0 7 17   100.64     LegendNANA
15:00 20.1 3.7 34 0.0 6 18   100.59     LegendNANA
16:00 19.7 3.8 35 0.0 7 21   100.56     LegendNANA
17:00 17.6 1.0 33 0.0 9 24   100.55     LegendNANA
18:00 11.8 3.7 58 0.0 5 12   100.58     LegendNANA
19:00 10.3 4.0 65 0.0 4 9   100.60     LegendNANA
20:00 9.6 4.3 70 0.0 4 10   100.63     LegendNANA
21:00 8.6 4.4 75 0.0 4 11   100.60     LegendNANA
22:00 7.6 4.2 79 0.0 2 8   100.58     LegendNANA
23:00 6.9 4.0 82 0.0 4 9   100.58     LegendNANA

Notes on Data Quality.

Legend

  • E = Estimated
  • M = Missing
  • NA = Not Available*
  • [empty] = Indicates an unobserved value
Date modified: